Station MACM4 - 9075080 - Mackinaw City, MI Image indicating link to RSS feed of recent meteorological observations for station MACM4


Conditions at MACM4 as of
(12:18 am EDT)
0418 GMT on 07/14/2024:
     

Click on the graph icon in the table below to see a time series plot of the last five days of that observation.

5-day plot - Wind Direction Wind Direction (WDIR): SW ( 220 deg true )
5-day plot - Wind Speed Wind Speed (WSPD): 1.0 kts
5-day plot - Wind Gust Wind Gust (GST): 1.9 kts
5-day plot - Atmospheric Pressure Atmospheric Pressure (PRES):29.95 in
5-day plot - Air Temperature Air Temperature (ATMP): 70.0 °F
5-day plot - Water Temperature Water Temperature (WTMP): 71.1 °F
5-day plot - Dew Point Dew Point (DEWP): 64.9 °F
5-day plot - Wind Speed at 10 Meters Wind Speed at 10 meters (WSPD10M): 1.9 kts
5-day plot - Wind Speed at 20 Meters Wind Speed at 20 meters (WSPD20M): 1.9 kts
5-day plot -  Wind Speed, Wind Gust and Atmospheric Pressure Combined plot of Wind Speed, Gust, and Air Pressure
NOS Water Level Observation Network Water Level
Previous observations
TIME
(EDT)
5-day plot - Wind Direction
WDIR
 
5-day plot - Wind Speed
WSPD
kts
5-day plot - Wind Gust
GST
kts
5-day plot - Wave Height
WVHT
ft
5-day plot - Dominant Wave Period
DPD
sec
5-day plot - Average Wave Period
APD
sec
5-day plot - Mean Wave Direction
MWD
 
5-day plot - Atmospheric Pressure
PRES
in
5-day plot - Pressure Tendency
PTDY
in
5-day plot - Air Temperature
ATMP
°F
5-day plot - Water Temperature
WTMP
°F
5-day plot - Dew Point
DEWP
°F
5-day plot - Salinity
SAL
psu
5-day plot - Visibility
VIS
nmi
5-day plot - Tide (above MLLW)
TIDE
ft
2024-07-14 12:12 amSSW 1.0 1.9----29.96- 70.2 71.2 65.3---
2024-07-14 12:06 amSSW 1.0 1.0----29.96- 70.9 71.1 65.7---
2024-07-14 12:00 am- 0.0 1.9----29.95-0.02 71.2 71.1 65.5---
2024-07-13 11:54 pm SW 1.9 1.9----29.96- 71.6 71.1 65.7---
2024-07-13 11:48 pm SW 1.9 1.9----29.96- 72.1 71.1 65.3---
2024-07-13 11:42 pm SW 1.0 1.9----29.96- 72.5 71.2 64.9---
2024-07-13 11:36 pmWSW 1.0 1.0----29.96- 72.3 71.2 65.1---
2024-07-13 11:30 pm- 0.0 1.9----29.96- 72.5 71.2 64.8---
2024-07-13 11:24 pm SW 1.0 1.9----29.96- 72.5 71.2 64.9---
2024-07-13 11:18 pm SW 1.9 1.9----29.96- 72.3 71.2----
2024-07-13 11:12 pm SW 1.0 1.9----29.96- 72.0 71.2----
2024-07-13 11:06 pm- 0.0 1.9----29.97- 71.8 71.2----
2024-07-13 11:00 pmSSE 1.9 1.9----29.96-0.01 71.8 71.2 64.9---
2024-07-13 10:54 pm S 1.9 2.9----29.97- 71.6 71.2 65.1---
2024-07-13 10:48 pmSSE 1.9 2.9----29.97- 71.8 71.2 65.1---
2024-07-13 10:42 pm S 2.9 4.1----29.97- 72.1 71.2 64.8---
2024-07-13 10:36 pmSSW 2.9 2.9----29.97- 72.0 71.2 64.8---
2024-07-13 10:30 pm S 2.9 4.1----29.97- 71.6 71.2 65.1---
2024-07-13 10:24 pmSSE 2.9 5.1----29.97- 71.6 71.2 65.8---
2024-07-13 10:18 pmSSE 5.1 5.1----29.97- 71.6- 66.4---
2024-07-13 10:12 pmSSE 4.1 6.0----29.97- 71.8- 66.6---
2024-07-13 10:06 pm SE 6.0 6.0----29.97- 72.0- 67.8---
2024-07-13 10:00 pm SE 5.1 6.0----29.97-0.03 72.5 71.2 67.8---
2024-07-13 09:54 pm SE 7.0 8.0----29.96- 73.6 71.2 65.1---
2024-07-13 09:48 pmESE 8.0 8.9----29.96-- 71.2----
2024-07-13 09:42 pmSSE 4.1 5.1----29.96-- 71.2----
2024-07-13 09:36 pmSSW 2.9 2.9----29.96-- 71.2----
2024-07-13 09:30 pm SW 1.9 4.1----29.96- 73.9 71.2 62.8---
2024-07-13 09:24 pmWSW 2.9 4.1----29.96- 74.1 71.2 61.9---
2024-07-13 09:18 pmWSW 2.9 4.1----29.97-- 71.2----
2024-07-13 09:12 pm W 1.9 2.9----29.97-- 71.1----
2024-07-13 09:06 pm W 2.9 5.1----29.97-- 71.1----
2024-07-13 09:00 pmWSW 4.1 6.0----29.97-0.04 74.8 71.4 60.8---
2024-07-13 08:54 pm W 5.1 7.0----29.97- 75.6 71.2 60.3---
2024-07-13 08:48 pm W 5.1 7.0------- 71.1----
2024-07-13 08:42 pm W 6.0 6.0------- 71.2----
2024-07-13 08:36 pmWNW 5.1 7.0------- 71.1----
2024-07-13 08:30 pm W 5.1 7.0----29.97- 76.8 71.1 61.0---
2024-07-13 08:24 pm W 5.1 6.0----29.97- 77.0 71.2 61.0---
2024-07-13 08:18 pmWSW 4.1 7.0----29.97- 77.0 71.1 60.8---
2024-07-13 08:12 pmWSW 5.1 7.0----29.97- 77.0 71.1 60.8---
2024-07-13 08:06 pmWSW 6.0 8.9----29.97- 77.0 71.1 61.2---
2024-07-13 08:00 pmWSW 7.0 8.9----29.98-0.04 77.0 71.1 61.0---
2024-07-13 07:54 pmWSW 5.1 8.0----29.98- 77.4 71.1 61.9---
2024-07-13 07:48 pmWSW 6.0 8.0----29.98- 77.4 71.1 62.4---
2024-07-13 07:42 pmWSW 6.0 9.9----29.98- 77.5 71.1 62.4---
2024-07-13 07:36 pm W 7.0 11.1----29.98- 77.7 71.1 62.8---
2024-07-13 07:30 pm W 7.0 9.9----29.98- 78.1 71.1 63.3---
2024-07-13 07:24 pm W 5.1 9.9----29.98- 78.8 71.1 63.3---
2024-07-13 07:18 pm W 7.0 9.9----29.98- 79.0 71.1 63.0---
2024-07-13 07:12 pm W 8.0 12.0----29.98- 79.2 71.1 63.1---
2024-07-13 07:06 pm W 6.0 9.9----29.99- 79.5 70.9 63.3---
2024-07-13 07:00 pm W 8.0 11.1----29.99-0.03 79.5 70.9 63.7---
2024-07-13 06:54 pm W 8.9 11.1----29.99- 79.5 71.1 63.5---
2024-07-13 06:48 pm W 7.0 9.9----30.00- 80.1 70.3 63.9---
2024-07-13 06:42 pm W 8.0 12.0----29.99- 79.9 70.9 63.9---
2024-07-13 06:36 pm W 8.9 11.1----29.99- 79.9 70.5 64.0---
2024-07-13 06:30 pm W 9.9 12.0----30.00-- 70.9----
2024-07-13 06:24 pm W 7.0 8.9----30.00-- 70.9----
2024-07-13 06:18 pm W 7.0 12.0----30.00- 80.8 70.3 64.2---
2024-07-13 06:12 pm W 8.9 11.1----30.00- 80.4 70.9 64.0---
2024-07-13 06:06 pm W 8.9 12.0----30.00- 80.8 70.7 63.7---
2024-07-13 06:00 pm W 7.0 13.0----30.01-0.04 81.0 70.5----
2024-07-13 05:54 pm W 11.1 13.0----30.01- 80.6 70.7----
2024-07-13 05:48 pm W 8.0 12.0----30.01- 81.1 70.7 64.2---
2024-07-13 05:42 pm W 8.9 12.0----30.01- 81.0 70.5 63.9---
2024-07-13 05:36 pm W 8.0 13.0----30.02- 81.3 70.3 64.2---
2024-07-13 05:30 pm W 12.0 15.0----30.02-- 70.5----
2024-07-13 05:24 pm W 12.0 15.0----30.02-- 70.3----
2024-07-13 05:18 pm W 11.1 15.0----30.02- 81.7 70.7 64.2---
2024-07-13 05:12 pm W 13.0 15.0----30.02- 81.9 70.7 64.0---
2024-07-13 05:06 pm W 9.9 15.0----30.02- 82.0 70.5 64.6---
2024-07-13 05:00 pm W 11.1 14.0----30.02-0.02 82.0 70.3 64.4---
2024-07-13 04:54 pm W 11.1 14.0----30.02- 82.4 70.3 64.6---
2024-07-13 04:48 pm W 11.1 14.0----30.02- 81.9 70.0 64.4---
2024-07-13 04:42 pm W 11.1 13.0----30.02- 82.2 70.0 64.8---
2024-07-13 04:36 pm W 8.9 13.0----30.02- 82.9 69.8 65.1---
2024-07-13 04:30 pmWSW 7.0 12.0----30.02-- 69.6----
2024-07-13 04:24 pm W 9.9 12.0----30.02-- 70.5----
2024-07-13 04:18 pm W 8.9 13.0----30.03- 83.3 69.6 65.5---
2024-07-13 04:12 pm W 11.1 14.0----30.03- 83.1 69.8 65.5---
2024-07-13 04:06 pm W 7.0 12.0----30.03- 83.8 69.6 66.0---
2024-07-13 04:00 pm W 8.9 14.0----30.03-0.03- 69.4----
2024-07-13 03:54 pm W 8.0 12.0----30.03-- 69.8----
2024-07-13 03:48 pm W 8.0 12.0----30.03-- 69.3----
2024-07-13 03:42 pm W 8.0 12.0----30.03-- 69.3----
2024-07-13 03:36 pm W 9.9 12.0----30.03-- 70.0----
2024-07-13 03:30 pm W 8.9 12.0----30.03- 82.2 69.3 66.6---
2024-07-13 03:24 pm W 7.0 11.1----30.03- 82.6 70.2 66.6---
2024-07-13 03:18 pm W 7.0 11.1----30.03- 82.6 69.6 66.6---
2024-07-13 03:12 pm W 8.0 12.0----30.03- 83.1 68.9 67.3---
2024-07-13 03:06 pm W 8.9 12.0----30.04- 82.4 70.3 66.2---
2024-07-13 03:00 pm W 8.0 12.0----30.04-0.03- 69.4----
2024-07-13 02:54 pmWSW 8.0 13.0----30.04-- 69.8----
2024-07-13 02:48 pm W 7.0 11.1----30.04- 82.9 69.8 66.9---
2024-07-13 02:42 pmWSW 7.0 11.1----30.04- 82.4 69.8 67.1---
2024-07-13 02:36 pm W 8.0 11.1----30.04- 82.9 69.8 67.5---
2024-07-13 02:30 pm W 8.9 11.1----30.04- 82.2 69.8 66.9---
2024-07-13 02:24 pm W 8.9 12.0----30.04- 82.4 70.0 66.9---
2024-07-13 02:18 pm W 8.9 12.0----30.04- 81.9 70.3 67.1---
2024-07-13 02:12 pmWSW 8.9 12.0----30.04- 82.0 69.8 66.9---
2024-07-13 02:06 pm W 7.0 11.1----30.04- 82.4 69.8 66.7---
2024-07-13 02:00 pm W 6.0 8.9----30.04-0.02 82.6 69.8 67.5---
2024-07-13 01:54 pmWNW 5.1 8.9----30.04- 82.2 69.8 67.3---
2024-07-13 01:48 pm NW 8.0 11.1----30.05-------
2024-07-13 01:42 pm NW 8.9 11.1----30.05-------
2024-07-13 01:36 pm NW 8.9 11.1----30.05-------
2024-07-13 01:30 pm NW 8.9 11.1----30.06- 79.2 70.0 67.3---
2024-07-13 01:24 pm NW 6.0 8.9----30.06- 80.2 69.8 67.6---
2024-07-13 01:18 pm NW 7.0 9.9----30.06- 79.9 70.0 67.3---
2024-07-13 01:12 pmNNW 7.0 9.9----30.06- 78.1 70.0 67.3---
2024-07-13 01:06 pmNNW 8.9 11.1----30.06- 77.9 70.0 67.1---
2024-07-13 01:00 pm-------30.06-0.01- 70.0----
2024-07-13 12:54 pm-------30.06-- 70.0----
2024-07-13 12:48 pmNNW 8.0 8.9----30.06- 77.2 69.8 66.9---
2024-07-13 12:42 pm NW 6.0 9.9----30.06- 76.8 70.0 66.6---
2024-07-13 12:36 pm NW 8.0 9.9----30.06- 76.5 69.8 66.2---
2024-07-13 12:30 pm NW 8.9 12.0------ 76.5 69.8 65.8---
2024-07-13 12:24 pm NW 9.9 12.0------ 77.0 69.8 65.7---
2024-07-13 12:18 pmWNW 8.0 11.1----30.07-------
2024-07-13 12:12 pm W 8.0 9.9----30.07-------
2024-07-13 12:06 pm W 8.9 11.1----30.07-------
2024-07-13 12:00 pm W 9.9 12.0----30.07+0.00 78.3 69.8 65.1---
2024-07-13 11:54 am W 8.9 12.0----30.07- 78.4 70.0 65.1---
2024-07-13 11:48 am W 9.9 13.0----30.07- 78.3 70.0 64.9---
2024-07-13 11:42 amWNW 8.0 11.1----30.07- 78.1 69.8 65.1---
2024-07-13 11:36 am W 8.0 13.0----30.07- 78.3 70.2 65.3---
2024-07-13 11:30 amWNW 11.1 13.0----30.07- 78.1 70.2 64.9---
2024-07-13 11:24 am W 8.9 12.0----30.07- 78.8 70.0 65.3---
2024-07-13 11:18 amWNW 7.0 8.9----30.07- 79.0 69.8 65.8---
2024-07-13 11:12 amWNW 7.0 8.9----30.07- 78.8 70.0 65.8---
2024-07-13 11:06 am W 6.0 9.9----30.07- 78.4 69.8 66.0---
2024-07-13 11:00 am W 8.0 11.1----30.06+0.00 78.4 69.8 65.7---
2024-07-13 10:54 am W 7.0 9.9----30.06- 78.8 69.6 66.0---
2024-07-13 10:48 am W 5.1 8.9----30.06- 79.0 69.8 66.4---
2024-07-13 10:42 am W 5.1 8.0----30.06- 78.8 69.4 66.6---
2024-07-13 10:36 am W 5.1 8.0----30.06- 78.3 69.3 66.0---
2024-07-13 10:30 am SW 5.1 7.0----30.07- 77.7 69.6 65.8---
2024-07-13 10:24 amWSW 5.1 8.9----30.07- 77.5 69.4 65.5---
2024-07-13 10:18 am W 5.1 11.1----30.07- 77.4 69.4 65.5---
2024-07-13 10:12 am W 6.0 11.1----30.07- 76.8 69.4 64.9---
2024-07-13 10:06 am W 1.0 2.9----30.07- 75.4 69.4 66.0---
2024-07-13 10:00 amENE 1.9 4.1----30.07+0.02 73.4 69.4 65.5---
2024-07-13 09:54 am E 1.9 4.1----30.07- 73.4 69.4 66.0---
2024-07-13 09:48 am S 1.9 1.9----30.07- 74.1 69.8 64.4---
2024-07-13 09:42 amSSE 1.0 2.9----30.07- 73.9 69.8 64.2---
2024-07-13 09:36 amSSE 1.9 2.9----30.07- 73.8 68.7 64.6---
2024-07-13 09:30 am SE 2.9 4.1----30.07- 71.8 69.8 63.9---
2024-07-13 09:24 am E 2.9 4.1----30.07- 71.6 68.7 63.9---
2024-07-13 09:18 am E 1.9 2.9----30.07- 72.7 69.1 63.5---
2024-07-13 09:12 am- 0.0 4.1----30.07- 72.9 68.7 63.7---
2024-07-13 09:06 am SW 1.9 4.1----30.07- 72.9 69.8 63.1---
2024-07-13 09:00 amWSW 2.9 4.1----30.07+0.02 72.9 69.3 63.0---
2024-07-13 08:54 am- 0.0 1.9----30.07- 72.7 69.3 62.4---
2024-07-13 08:48 am NE 1.0 1.0----30.07- 73.0 69.8 62.4---
2024-07-13 08:42 am- 0.0 1.0----30.07- 72.9 69.1 62.1---
2024-07-13 08:36 amWSW 1.9 1.9----30.07- 71.6 69.1 61.7---
2024-07-13 08:30 amSSW 1.9 2.9----30.07- 71.4 69.8 61.3---
2024-07-13 08:24 am- 0.0 1.9----30.07- 71.6 68.9 62.1---
2024-07-13 08:18 am NW 1.0 5.1----30.07- 71.1 69.3 61.0---
2024-07-13 08:12 amWSW 5.1 8.9----30.07- 70.5 69.3 60.8---
2024-07-13 08:06 am SW 6.0 8.9----30.07- 70.3 69.6 60.8---
2024-07-13 08:00 am SW 6.0 9.9----30.06+0.02 69.8 69.4 60.8---
2024-07-13 07:54 am SW 8.0 11.1----30.06- 69.6 69.8 60.4---
2024-07-13 07:48 am SW 8.9 9.9----30.06-- 69.8----
2024-07-13 07:42 am SW 8.0 9.9----30.06-- 69.8----
2024-07-13 07:36 am SW 7.0 8.9----30.06-- 69.8----
2024-07-13 07:30 am SW 7.0 8.9----30.06-- 69.8----
2024-07-13 07:24 am SW 6.0 8.9----30.05-- 69.8----
2024-07-13 07:18 am SW 6.0 8.0----30.06- 68.5 69.8 60.6---
2024-07-13 07:12 am SW 6.0 7.0----30.06- 68.5 69.8 60.4---
2024-07-13 07:06 am SW 6.0 8.0----30.06- 68.4 69.8 60.4---
2024-07-13 07:00 am SW 6.0 8.9----30.06- 68.4 69.8 60.6---
2024-07-13 06:54 am SW 7.0 8.9----30.06- 68.4 69.8 60.6---
2024-07-13 06:48 am SW 7.0 8.9----30.05- 68.0 69.8 60.8---
2024-07-13 06:42 amSSW 7.0 8.0----30.06- 67.5 69.8 61.2---
2024-07-13 06:36 amSSW 6.0 8.0----30.06- 67.1 69.8 61.2---
2024-07-13 06:30 amSSW 6.0 8.0----30.06- 66.9 69.8 61.5---
2024-07-13 06:24 amSSW 6.0 7.0----30.06- 66.4 69.8 61.3---
2024-07-13 06:18 amSSW 4.1 5.1----30.06- 66.2 69.8 61.7---
2024-07-13 06:12 amSSW 2.9 5.1----30.06- 66.0 69.8 61.9---
2024-07-13 06:06 am S 2.9 4.1----30.06- 66.2 69.8 61.9---
2024-07-13 06:00 am S 2.9 5.1----30.06+0.00- 69.8----
2024-07-13 05:54 amSSE 2.9 5.1----30.06-- 69.8----
2024-07-13 05:48 amSSE 2.9 4.1----30.06-- 69.8----
2024-07-13 05:42 am S 1.9 2.9----30.06-- 69.8----
2024-07-13 05:36 am S 2.9 4.1----30.05-- 69.8----
2024-07-13 05:30 am S 1.9 4.1----30.05- 65.7 69.8 61.2---
2024-07-13 05:24 am S 2.9 4.1----30.05- 65.8 69.8 61.5---
2024-07-13 05:18 am S 2.9 4.1----30.05- 65.8 69.8 61.3---
2024-07-13 05:12 amSSE 2.9 4.1----30.05- 65.8 69.8 60.8---
2024-07-13 05:06 am S 1.9 2.9----30.05- 65.8 69.8 60.6---
2024-07-13 05:00 amSSE 1.9 4.1----30.04-0.02 66.0 69.8 61.2---
2024-07-13 04:54 amSSE 2.9 4.1----30.04- 66.2 69.8 61.0---
2024-07-13 04:48 amSSE 2.9 4.1----30.05- 66.0 69.8 61.9---
2024-07-13 04:42 amSSE 2.9 4.1----30.05- 66.0 69.8 61.7---
2024-07-13 04:36 amSSE 2.9 4.1----30.05- 66.4 69.8 61.5---
2024-07-13 04:30 amSSE 1.9 2.9----30.05- 66.6 69.8 61.2---
2024-07-13 04:24 amSSE 1.9 4.1----30.05- 66.4 70.0 60.8---
2024-07-13 04:18 amSSE 2.9 4.1----30.04- 66.0 69.8 60.8---
2024-07-13 04:12 amSSE 1.9 1.9----30.05- 66.0 70.0 60.8---
2024-07-13 04:06 am- 0.0 1.9----30.05- 65.8 70.0 61.0---
2024-07-13 04:00 amSSE 1.9 5.1------ 66.0 70.0 61.2---
2024-07-13 03:54 am S 5.1 5.1------ 66.6 70.0 60.8---
2024-07-13 03:48 amSSE 2.9 4.1----30.05- 66.7 70.0 61.5---
2024-07-13 03:42 am SE 1.9 2.9----30.05- 66.7 70.0 61.0---
2024-07-13 03:36 amSSE 1.9 2.9----30.05- 66.9 70.0 61.3---
2024-07-13 03:30 amSSE 1.0 2.9----30.05- 67.3 70.0 60.8---
2024-07-13 03:24 amSSE 2.9 4.1----30.05- 67.3 70.0 59.9---
2024-07-13 03:18 amSSE 1.9 2.9----30.05- 67.1 70.0 60.4---
2024-07-13 03:12 am- 0.0 1.0----30.05- 67.1 70.0 58.8---
2024-07-13 03:06 am- 0.0 1.0----30.05- 67.1 70.0 58.5---
2024-07-13 03:00 am- 0.0 1.9----30.05-0.02 67.1 70.0 59.4---
2024-07-13 02:54 am SW 1.9 4.1----30.05- 67.5 70.0 58.6---
2024-07-13 02:48 amWSW 2.9 4.1----30.05- 67.5 70.0 58.6---
2024-07-13 02:42 am SW 2.9 5.1----30.05- 67.3 70.0 59.0---
2024-07-13 02:36 amWSW 2.9 5.1----30.06- 67.3 70.0 59.2---
2024-07-13 02:30 amSSW 1.9 1.9----30.06- 66.0 70.0 61.9---
2024-07-13 02:24 am S 1.9 2.9----30.06- 66.4 70.0 61.5---
2024-07-13 02:18 am S 1.9 2.9----30.06- 66.4 70.0 63.3---
2024-07-13 02:12 am S 1.0 1.9----30.06- 66.4 70.0 63.0---
2024-07-13 02:06 amSSW 1.0 2.9----30.06- 66.6 70.0 61.5---
2024-07-13 02:00 amSSW 1.9 2.9----30.07+0.00 66.9 70.0 61.9---
2024-07-13 01:54 amSSW 1.9 2.9----30.07- 67.1 70.0 61.9---
2024-07-13 01:48 amWSW 1.0 1.9----30.07- 66.9 70.0 62.1---
2024-07-13 01:42 am- 0.0 1.9----30.07- 66.6 70.0 63.1---
2024-07-13 01:36 amSSW 1.0 1.9----30.07- 66.4 70.0 63.9---
2024-07-13 01:30 am S 1.0 1.9----30.07- 66.6 70.0 63.9---
2024-07-13 01:24 amSSW 2.9 2.9----30.07- 66.9 70.2 62.4---
2024-07-13 01:18 am S 1.0 1.9----30.07- 67.3 70.2 62.6---
2024-07-13 01:12 am- 0.0 1.0----30.07- 67.3 70.0 62.6---
2024-07-13 01:06 am S 1.0 1.9----30.07- 67.8 70.2 62.8---
2024-07-13 01:00 am SW 1.9 1.9----30.07+0.02 68.0 70.0 62.8---
2024-07-13 12:54 am SW 2.9 5.1----30.07- 68.2 70.0 62.6---
2024-07-13 12:48 am SW 2.9 4.1----30.07- 67.8 70.0 62.8---
2024-07-13 12:42 am SW 4.1 5.1----30.07- 67.1 70.0 62.6---
2024-07-13 12:36 amSSW 4.1 5.1----30.07- 67.5 70.0 62.6---
2024-07-13 12:30 am SW 4.1 4.1----30.07- 67.5 70.0 62.2---
2024-07-13 12:24 amSSW 2.9 4.1----30.07- 67.3 70.0 62.4---
2024-07-13 12:18 am SW 4.1 4.1----30.07- 67.3 70.0 62.1---
2024-07-13 12:12 amSSW 1.9 1.9----30.07- 67.1 70.0 63.0---
2024-07-13 12:06 amSSW 1.9 1.9----30.07- 67.3 70.0 63.5---
2024-07-13 12:00 am S 1.0 1.9----30.07+0.04 67.5 70.0 63.0---
2024-07-12 11:54 pm SW 1.9 2.9----30.07- 68.0 70.0 63.9---